Regional Weather Roundup
Issued by NWS

Home | Current Version | Previous Version | Text Only | Print | Product List | Glossary On
Versions: 1 2 3 4 5 6 7 8 9 10 11 12 13 14 15 16 17 18 19 20 21 22 23 24 25 26 27 28 29 30 31 32 33 34 35 36 37 38 39 40 41 42 43 44 45 46 47 48 49 50
000
ASUS43 KDMX 221201
RWRIA

WEATHER ROUNDUP FOR IOWA
NATIONAL WEATHER SERVICE DES MOINES IA
700 AM CDT WED MAR 22 2017

NOTE: "FAIR" INDICATES FEW OR NO CLOUDS BELOW 12,000 FEET WITH NO
SIGNIFICANT WEATHER AND/OR OBSTRUCTIONS TO VISIBILITY.

* - THESE STATIONS ARE NOT NWS STATIONS...THUS NOT UNDER NWS
QUALITY CONTROL.  THEY ALSO DO NOT REPORT WEATHER SUCH
AS PRECIPITATION OR FOG.

IAZ001>003-012>014-020>022-031>034-043>046-221300-
   NORTHWEST IOWA

CITY           SKY/WX    TMP DP  RH WIND       PRES   REMARKS
CARROLL *      CLOUDY    28  18  64 E10       30.44S WCI  19
CHEROKEE *     CLOUDY    26  18  71 E6        30.44F WCI  19
DENISON *      CLOUDY    28  18  64 E14       30.41R WCI  17
LE MARS *      CLOUDY    28  18  64 SE9       30.44S WCI  20
ORANGE CITY *  CLOUDY    27  18  69 E8        30.42S WCI  18
SHELDON *      CLOUDY    27  19  74 E15       30.41F WCI  15
SIOUX CITY     CLOUDY    30  18  60 SE9       30.44S WCI  22
6HR MIN TEMP:  29; 6HR MAX TEMP:  33;

SPENCER        CLOUDY    25  16  68 E10       30.45F WCI  15
6HR MIN TEMP:  23; 6HR MAX TEMP:  25;

STORM LAKE *   MOCLDY    25  18  74 E12       30.43S WCI  14
$$

IAZ055>058-069>071-079>083-090>094-221300-
   SOUTHWEST IOWA

CITY           SKY/WX    TMP DP  RH WIND       PRES   REMARKS
ATLANTIC *     CLOUDY    30  18  59 E9G15     30.44R WCI  22
AUDUBON *      CLOUDY    28  19  69 E9        30.44R WCI  20
CLARINDA *     CLOUDY    34  18  51 VRB6      30.45R WCI  29
COUNCIL BLFS * CLOUDY    32  18  55 E9        30.43R WCI  24
CRESTON *      CLOUDY    30  18  59 E12       30.44R WCI  21
HARLAN  *      CLOUDY    30  19  64 E7G14     30.47R WCI  23
LAMONI         CLOUDY    31  18  58 E13G18    30.42R WCI  21
6HR MIN TEMP:  31; 6HR MAX TEMP:  36;

RED OAK *      CLOUDY    34  18  51 E7G14     30.44R WCI  28
SHENANDOAH *   CLOUDY    34  18  51 E12       30.44R WCI  25
$$

IAZ047>049-059>061-072>074-084-221300-
   CENTRAL IOWA

CITY           SKY/WX    TMP DP  RH WIND       PRES   REMARKS
AMES           PTCLDY    26  17  68 E7        30.48R WCI  18
6HR MIN TEMP:  26; 6HR MAX TEMP:  30;

ANKENY *       MOCLDY    27  18  69 NE8       30.48S WCI  18
BOONE *        PTCLDY    25  16  68 E12       30.45S WCI  14
CHARITON *     MOCLDY    27  19  74 E9        30.45R WCI  17
DES MOINES     CLOUDY    30  16  56 E9        30.46R WCI  22
6HR MIN TEMP:  29; 6HR MAX TEMP:  34;

GRINNELL*      PTCLDY    25  18  74 E10       30.48R WCI  15
MARSHALLTOWN   PTCLDY    25  16  68 E15       30.47S WCI  13
6HR MIN TEMP:  23; 6HR MAX TEMP:  26;

NEWTON *       PTCLDY    25  18  74 E8        30.47R WCI  16
PELLA *        PTCLDY    28  20  72 E6        30.48R WCI  22
PERRY *          N/A     28  14  55 E10       30.45S WCI  19
$$

IAZ004>006-015-016-023>025-035-036-221300-
   NORTH CENTRAL IOWA

CITY           SKY/WX    TMP DP  RH WIND       PRES   REMARKS
ALGONA *       CLOUDY    25  18  74 E8        30.47R WCI  16
CLARION *      CLOUDY    23  18  80 E10       30.47S WCI  12
ESTHERVILLE    MOCLDY    21  16  81 E8        30.46S WCI  11
6HR MIN TEMP:  21; 6HR MAX TEMP:  25;

FORT DODGE *   PTCLDY    21  16  79 E7        30.47F WCI  13
MASON CITY     CLEAR     21  13  71 E10       30.51S WCI  10
6HR MIN TEMP:  19; 6HR MAX TEMP:  25;

FOREST CITY *    N/A     23  14  68 E7        30.48F WCI  15
WEBSTER CITY * PTCLDY    25  16  68 E9        30.45S WCI  15
IOWA FALLS *     N/A     25  17  73 E10       30.48S WCI  14
$$

IAZ007>011-017>019-026>030-037>042-050>054-066-221300-
   NORTHEAST IOWA

CITY           SKY/WX    TMP DP  RH WIND       PRES   REMARKS
CEDAR RAPIDS   CLOUDY    27  17  66 E12       30.50R WCI  17
6HR MIN TEMP:  24; 6HR MAX TEMP:  31;

CHARLES CITY * CLOUDY    21  12  68 E9        30.52R WCI  11
CLINTON *      CLOUDY    26  19  74 E13       30.52R WCI  15
DECORAH *      PTCLDY    21  10  63 E6        30.51S WCI  14
DUBUQUE        CLEAR     22  13  68 E10       30.51R WCI  11
6HR MIN TEMP:  22; 6HR MAX TEMP:  31;

MONTICELLO *   CLEAR     25  16  68 E9        30.52R WCI  15
OELWEIN *      CLOUDY    21  16  79 E7        30.52R WCI  13
WATERLOO       PTCLDY    20  14  77 E3        30.52R
6HR MIN TEMP:  18; 6HR MAX TEMP:  25;

$$

IAZ064-065-067-068-078-221300-
   EAST CENTRAL IOWA

CITY           SKY/WX    TMP DP  RH WIND       PRES   REMARKS
DAVENPORT      CLOUDY    29  21  72 E13       30.51R WCI  19
6HR MIN TEMP:  26; 6HR MAX TEMP:  34;

IOWA CITY      MOCLDY    30  22  72 E8        30.53R WCI  22
6HR MIN TEMP:  30; 6HR MAX TEMP:  34;

MUSCATINE *    CLOUDY    30  21  69 E8        30.53R WCI  23
QUAD CITIES    CLEAR     28  20  71 E12       30.51R WCI  18
6HR MIN TEMP:  28; 6HR MAX TEMP:  38;

$$

IAZ062-063-075>077-085>089-095>099-221300-
   SOUTHEAST IOWA

CITY           SKY/WX    TMP DP  RH WIND       PRES   REMARKS
BURLINGTON     PTCLDY    29  24  82 NE8       30.48R WCI  21
6HR MIN TEMP:  29; 6HR MAX TEMP:  37;

FAIRFIELD *    CLOUDY    28  21  74 E13       30.47R WCI  18
FORT MADISON * CLOUDY    28  25  86 E7        30.49R WCI  21
KEOKUK *       PTCLDY    30  27  86 E8        30.48R WCI  23
OSKALOOSA *      N/A     28  22  81 E15       30.48R WCI  16
CENTERVILLE *    N/A     28  21  74 E9        30.46R WCI  20
OTTUMWA        PTCLDY    28  23  81 E14       30.47R WCI  17
6HR MIN TEMP:  27; 6HR MAX TEMP:  32;

WASHINGTON *   PTCLDY    28  23  80 E12       30.50R WCI  18
$$

ABBREVIATIONS USED IN REMARKS
   TC - TEMPERATURES IN CELSIUS
  WCI - WIND CHILL INDEX
   HX - HEAT INDEX
  VSB - VISIBILITY
$$





USA.gov is the U.S. government's official web portal to all federal, state and local government web resources and services.